Regional Weather Roundup
Issued by NWS Charleston, WV

Home | Current Version | Previous Version | Graphics & Text | Print | Product List | Glossary On
Versions: 1 2 3 4 5 6 7 8 9 10 11 12 13 14 15 16 17 18 19 20 21 22 23 24 25 26 27 28 29 30 31 32 33 34 35 36 37 38 39 40 41 42 43 44 45 46 47 48 49 50
000
ASUS41 KRLX 261910
RWRRLX
West Virginia Regional Weather Roundup
National Weather Service Charleston WV
Issued by National Weather Service Pittsburgh PA
300 PM EDT FRI AUG 26 2016

Note: "fair" indicates few or no clouds below 12,000 feet with no
significant weather and/or obstructions to visibility.

WVZ003-262000-
Northern Panhandle of West Virginia

CITY           SKY/WX    TMP DP  RH WIND       PRES   REMARKS
WHEELING       MOSUNNY   87  69  54 VRB3      30.14F HX  91
$$

WVZ009-262000-
Northwest West Virginia

CITY           SKY/WX    TMP DP  RH WIND       PRES   REMARKS
PARKERSBURG    MOSUNNY   91  68  46 N9        30.14F HX  95
$$

WVZ006-262000-
Western West Virginia

CITY           SKY/WX    TMP DP  RH WIND       PRES   REMARKS
HUNTINGTON     MOSUNNY   91  71  51 VRB5      30.12F HX  97
$$

WVZ015-262000-
West Central West Virginia

CITY           SKY/WX    TMP DP  RH WIND       PRES   REMARKS
CHARLESTON     MOSUNNY   91  70  49 NW3       30.12F HX  96
$$

WVZ031-262000-
North Central West Virginia

CITY           SKY/WX    TMP DP  RH WIND       PRES   REMARKS
CLARKSBURG     MOSUNNY   87  70  56 NW7       30.14F HX  92
MORGANTOWN     PTSUNNY   88  69  53 VRB6      30.14F HX  92
$$

WVZ035-042-262000-
South Central West Virginia

CITY           SKY/WX    TMP DP  RH WIND       PRES   REMARKS
BECKLEY        MOSUNNY   83  64  52 N9        30.23F HX  84
BLUEFIELD      SUNNY     83  64  52 N8        30.25F HX  84
$$

WVZ045-262000-
Greenbrier Valley of West Virginia

CITY           SKY/WX    TMP DP  RH WIND       PRES   REMARKS
LEWISBURG      MOSUNNY   86  64  48 N3        30.20F HX  87
$$

WVZ047-262000-
Northern Mountains of West Virginia

CITY           SKY/WX    TMP DP  RH WIND       PRES   REMARKS
ELKINS         PTSUNNY   88  68  51 NW7       30.19F HX  91
$$

WVZ052-262000-
Eastern Panhandle of West Virginia

CITY           SKY/WX    TMP DP  RH WIND       PRES   REMARKS
MARTINSBURG    MOSUNNY   90  68  48 N7        30.06F HX  94
PETERSBURG     MOSUNNY   94  67  41 NW13      30.10S HX  98
$$




USA.gov is the U.S. government's official web portal to all federal, state and local government web resources and services.